Location: Capelle
(50.3413°N, 1.9974°E)
Time: 00:14:07
(UTC+00:00)

Cosmos 1943 - Pass Details

Date: 12 January 2026
Orbit: 830 x 850 km, 71.0° (Epoch: 17 February)

Event Time Altitude Azimuth Distance (km) Brightness Sun altitude
Rises 17:28:52 0° 189° (S) 3,368 6.7 -11.6°
Reaches altitude 10° 17:31:20 10° 184° (S) 2,440 5.9 -12.0°
Maximum altitude 17:36:43 50° 111° (ESE) 1,062 3.4 -12.8°
Enters shadow 17:41:28 14° 40° (NE) 2,222 4.9 -13.5°
